Location: Madrid
(40.4000°N, 3.6830°W)
Time: 12:58:56
(UTC+02:00)

ISS - Pass Details

Date: 01 June 2020
Orbit: 417 x 419 km, 51.6° (Epoch: 31 May)

Event Time Altitude Azimuth Distance (km) Brightness Sun altitude
Rises 23:10:19 0° 304° (NW) 2,365 1.7 -14.4°
Reaches altitude 10° 23:12:26 10° 301° (WNW) 1,498 0.3 -14.7°
Maximum altitude 23:15:46 63° 220° (SW) 470 -3.6 -15.1°
Enters shadow 23:16:59 34° 152° (SSE) 701 -3.2 -15.2°
